Other Public Products
Issued by NWS Grand Forks, ND

Home | Current Version | Previous Version | Text Only | Print | Product List | Glossary Off
Versions: 1 2 3 4 5 6 7 8 9 10 11 12 13 14 15 16 17 18 19 20 21 22 23 24 25 26 27 28 29 30 31 32 33 34 35 36 37 38 39 40 41 42 43 44 45 46 47 48 49 50

337
FPUS83 KFGF 101431
OPUFGF
PRAIRIE TO PINES WEATHER ROUNDUP
NATIONAL WEATHER SERVICE EASTERN NORTH DAKOTA/GRAND FORKS ND
800 AM CST SAT DEC 10 2016

 **SATELLITE DATA USED TO AUGMENT SKY COVER AT AUTOMATED STATIONS**
 *****  WEATHER ACROSS EASTERN NORTH DAKOTA  *****

CITY           SKY/WX    TMP DP  RH WIND       PRES   REMARKS
GRAND FORKS    CLOUDY    -8 -13  78 CALM      30.49F
GRAND FORKS AF CLOUDY   -14 -20  74 CALM      30.47F
GRAND CITY NWS NOT AVBL
BUXTON           N/A     29  26  89 CALM        N/A
DEVILS LAKE    CLOUDY   -18 -23  77 CALM      30.38F
FARGO          CLOUDY    -5 -12  72 CALM      30.48F
WAHPETON ARPT  CLOUDY    -6 -11  77 NE3       30.46F
$$

 *****  WEATHER ACROSS CENTRAL AND WESTERN NORTH DAKOTA  *****

CITY           SKY/WX    TMP DP  RH WIND       PRES   REMARKS
JAMESTOWN      CLOUDY   -15 -19  82 CALM      30.36F
BISMARCK       CLOUDY   -17 -21  82 NE6       30.33F WCI -32
MINOT          CLOUDY   -20 -25  77 CALM      30.30F
MINOT AFB      CLOUDY   -25 -30  77 CALM      30.31F
GARRISON         N/A    -13 -17  82 E6        30.27F WCI -27
WILLISTON      CLOUDY    -9 -15  75 NE9       30.21F WCI -26
DICKINSON      CLOUDY    -6 -11  79 SE12      30.13S WCI -25
HETTINGER      LGT SNOW  -5  -9  83 SE10      30.13F FOG     WCI -23
$$

 *****  OTHER OBSERVATIONS NORTHEAST NORTH DAKOTA  *****

CITY           SKY/WX    TMP DP  RH WIND       PRES   REMARKS
WALHALLA         N/A    -17 -17 100 CALM      30.47S
LANGDON        FAIR     -18 -24  76 S5        30.36F WCI -31
CAVALIER         N/A    -15 -18  84 W3        30.48S
GRAFTON        FAIR     -13 -17  84 CALM      30.50F
CANDO          FAIR     -17 -22  76 CALM      30.39F
FORT TOTTEN      N/A    -17 -23  73 E2        29.95S
ROLLA            N/A    -20 -26  76 S6        30.31F WCI -36
RUGBY            N/A    -20 -26  76 SE7       30.35F WCI -37
 ***** THE ABOVE OBSERVATIONS ARE NON NWS ARE NOT QUALITY
        CONTROLLED AND MAY MIS-REPORT RAIN FOR SNOW...
$$

 *****  OTHER OBSERVATIONS SOUTHEAST NORTH DAKOTA *****

CITY           SKY/WX    TMP DP  RH WIND       PRES   REMARKS
COOPERSTOWN    FAIR     -18 -24  76 CALM      30.40F
VALLEY CITY    FAIR     -17 -20  83 N3        30.40F
OAKES          NOT AVBL
GWINNER        FAIR      -6  -9  84 NE6       30.41F WCI -18
SHEYENNE NWR     N/A    -11 -19  68 CALM      29.95S
BUFFALO          N/A    -13 -19  75 CALM        N/A
WYNDMERE         N/A     -8 -13  77 NE3         N/A
 ***** THE ABOVE OBSERVATIONS ARE NON NWS ARE NOT QUALITY
       CONTROLLED AND MAY MIS-REPORT RAIN FOR SNOW...
$$

  *****  WEATHER ACROSS NORTHERN MINNESOTA  *****

CITY           SKY/WX    TMP DP  RH WIND       PRES   REMARKS
FLAG ISLAND    CLOUDY    -8 -11  84 NW6       30.42S WCI -21
WARROAD        CLOUDY   -13 -18  77 CALM      30.43F
ROSEAU         CLOUDY    -9 -15  77 W3        30.45F HAZE
HALLOCK        CLOUDY   -13 -18  77 CALM      30.48F
THF RVR FALLS    N/A     -5 -10  79 CALM      30.46F
HALSTAD          N/A    -13 -18  76 N2          N/A
FOSSTON        CLOUDY   -15 -18  84 S3        30.44F
BAUDETTE       CLOUDY   -13 -17  82 SW3       30.42S
WASKISH        CLOUDY    -8  -9  92 CALM      30.42F
CROOKSTON      CLOUDY    -4  -8  84 CALM      30.48F
$$
  *****  WEATHER ACROSS CENTRAL AND WEST MINNESOTA  *****

CITY           SKY/WX    TMP DP  RH WIND       PRES   REMARKS
BEMIDJI        CLOUDY   -15 -20  81 CALM      30.41F
PARK RAPIDS    CLOUDY   -18 -24  74 W5        30.41F WCI -31
WADENA         CLOUDY    -8 -11  84 CALM      30.41F
DETROIT LAKES  CLOUDY   -11 -15  84 CALM      30.42F
MOORHEAD       CLOUDY    -9 -15  77 SE3       30.47F
FERGUS FALLS   CLOUDY    -9 -15  77 CALM      30.51F
ELBOW LAKE     CLOUDY    -8 -11  85 N3        30.43F
MORRIS MN      CLOUDY    -6  -9  84 CALM      30.43F
STAPLES        NOT AVBL
WHEATON        CLOUDY    -6  -9  84 CALM      30.48S
$$
  *****  WEATHER ELSEWHERE ACROSS MINNESOTA  *****

CITY           SKY/WX    TMP DP  RH WIND       PRES   REMARKS
DULUTH         CLOUDY     2  -4  76 NW5       30.40R WCI  -8
INTRNTL FALLS  CLOUDY   -14 -18  82 W3        30.41F
ELY            CLEAR     -9 -15  77 CALM      30.38F
CLOQUET        LGT SNOW   1  -6  71 CALM      30.42S
BRAINERD       CLOUDY     0  -4  83 SW9       30.45R WCI -15
HIBBING        PTCLDY   -11 -15  82 CALM      30.41S
ALEXANDRIA     CLOUDY    -5  -9  83 N3        30.40F FOG
SAINT CLOUD    CLOUDY     0  -4  83 NW5       30.47F WCI -10
MINNEAPOLIS    CLOUDY     5  -1  76 NW3       30.50F
$$

  *****  WEATHER ACROSS SOUTH DAKOTA  *****

CITY           SKY/WX    TMP DP  RH WIND       PRES   REMARKS
SIOUX FALLS    LGT SNOW  10   7  87 E9        30.35F FOG     WCI  -3
BROOKINGS      LGT SNOW   3   0  85 E9        30.33F WCI -11
WATERTOWN      CLOUDY     1  -3  83 SE6       30.34F WCI -10
HURON          LGT SNOW   6   2  83 E7        30.34F FOG     WCI  -6
SISSETON         N/A     -6 -11  79 CALM      30.44F
ABERDEEN       CLOUDY    -5 -13  68 E8        30.40F WCI -20
MITCHELL       LGT SNOW  10   7  87 E10       30.32F FOG     WCI  -4
PIERRE         FLURRIES   0  -5  79 E10       30.26F WCI -16
MOBRIDGE       CLOUDY    -3 -11  68 E8        30.26F WCI -18
RAPID CITY     CLOUDY     1  -3  83 E10       30.03F WCI -15
$$

  *****  SOME WEATHER IN NEARBY STATES *****

CITY           SKY/WX    TMP DP  RH WIND       PRES   REMARKS
GLASGOW MT     CLOUDY    -3  -9  75 SE14G22   30.03F WCI -22
GREAT FALLS MT CLOUDY     0  -3  87 SW5       29.77F WCI -10
CHEYENNE WY    CLOUDY    40  20  44 SW10      29.89F
SCOTTSBLUFF NE CLOUDY    16  12  84 E13       29.90F WCI   2
OMAHA NE       LGT SNOW  22  17  81 E7        30.38F FOG     WCI  13
DES MOINES IA  CLOUDY    23  13  65 SE8       30.44F WCI  14
DAVENPORT IA   CLOUDY    21  14  74 SW5       30.52S WCI  15
CHICAGO IL     MOCLDY    18  12  77 W10       30.51R WCI   6
EAU CLAIRE WI  CLOUDY     9   4  80 SW7       30.47S WCI  -2
LA CROSSE WI   PTCLDY     9   4  80 W6        30.51F WCI  -1
$$

  *****  SOME NATIONAL WEATHER *****

CITY           SKY/WX    TMP DP  RH WIND       PRES   REMARKS
LA GUARDIA NY  PTSUNNY   32  17  54 NW15      30.40R WCI  22
RALEIGH NC     SUNNY     28  15  58 CALM      30.57R
ATLANTA GA     SUNNY     30  20  66 NW7       30.52R WCI  23
NEW ORLEANS LA SUNNY     42  29  59 E12       30.53S
OKLAHOMA CITY  CLOUDY    34  22  61 S15       30.35F WCI  24
ALBUQUERQUE NM CLOUDY    28  23  81 NE3       30.26S
SALT LAKE CITY LGT RAIN  41  32  70 VRB7      29.97R
LOS ANGELES CA MOCLDY    55  53  93 NE5       30.15F FOG
BOISE ID       CLOUDY    34  32  92 NW5       29.84S FOG
SEATTLE WA     MOCLDY    38  36  92 S8        29.86R
$$

*** WEATHER ACROSS MANITOBA...SASKATCHEWAN AND ONTARIO ***
                ***ONTARIO***

CITY           SKY/WX    TMP DP  RH WIND       PRES   REMARKS
GERALDTON      MOCLDY   -11 -15  84 CALM      30.30S
THUNDER BAY    PTCLDY     3   0  85 W5        30.41S WCI  -6
SIOUX LOOKOUT  FLURRIES  -9 -13  84 NW3       30.35S
TORONTO        LGT SNOW  23  16  74 CALM      30.33S
BIG TROUT LK   FLURRIES -11 -15  84 W13       30.34F WCI -32
PICKLE LAKE    LGT SNOW  -8 -11  84 NW5       30.32S WCI -19
DRYDEN         FOG      -13 -17  84 W5        30.36S VSB 5/8 WCI -25
KENORA         FLURRIES  -6  -9  84 NW5       30.38F WCI -17
$$
                *** MANITOBA***

CITY           SKY/WX    TMP DP  RH WIND       PRES   REMARKS
BRANDON        PTCLDY   -22 -27  76 SW6       30.37F WCI -38
DAUPHIN        CLEAR    -26 -33  68 W7        30.40F WCI -44
ISLAND LAKE    FLURRIES  -8 -13  77 W5        30.40  WCI -19
PILOT MOUND      N/A    -20 -26  76 S5          N/A  WCI -33
THE PAS        FLURRIES  -9 -17  70 SW7       30.37F WCI -24
THOMPSON       FLURRIES  -4  -9  77 SW3       30.33F
WINNIPEG       PTCLDY   -15 -18  84 SW3       30.48S
LYNN LAKE      CLOUDY    -9 -13  84 W5        30.22F WCI -21
CHURCHILL      PTCLDY   -13 -18  77 W10       30.27F WCI -32
GILLAM         FLURRIES  -9 -15  77 SW5       30.35F WCI -21
$$
                ***SASKATCHEWAN***

CITY           SKY/WX    TMP DP  RH WIND       PRES   REMARKS
ESTEVAN        PTCLDY   -22 -29  69 E6        30.26F WCI -38
KINDERSLEY     CLOUDY    -4  -8  84 E17       30.04F WCI -26
LLOYDMINSTER   CRYSTALS -22 -27  76 E6        30.11F WCI -38
PRINCE ALBERT  CRYSTALS -24 -29  76 NE3       30.29F
REGINA         PTCLDY   -17 -22  76 SE8       30.23F WCI -34
YORKTON        CLEAR    -18 -24  76 SE2       30.30F   C1F1C2F2C3F3C4F4C5F5C6F6C7F7C8F8C9F9CaFaCbFbCcFcCdFdCe!



USA.gov is the U.S. government's official web portal to all federal, state and local government web resources and services.